Location: Recife
(8.0585°S, 34.8848°W)
Time: 10:22:24
(UTC-03:00)

Vanguard 2 Rocket - Pass Details

Date: 20 April 2026
Orbit: 553 x 3286 km, 32.9° (Epoch: 8 May)

Event Time Altitude Azimuth Distance (km) Brightness Sun altitude
Rises 04:00:39 0° 280° (W) 2,976 - -20.6°
Reaches altitude 10° 04:02:47 10° 270° (W) 2,232 - -20.1°
Exits shadow 04:05:54 31° 236° (SW) 1,501 7.5 -19.3°
Maximum altitude 04:07:31 36° 203° (SSW) 1,476 7.7 -18.9°
Drops below altitude 10° 04:14:59 10° 139° (SE) 3,543 10.3 -17.1°
Sets 04:19:18 0° 131° (SE) 5,021 11.3 -16.0°
